| time (UTC) | temp F | wind direction | speed MPH | gust MPH | rain 1hr in | rain 24hr in | rain mn in | humidity % | barometer mb |
| 20260506211451 | 86 | 7 | 1.0 | 3.0 | 0.00 | 0.00 | 0.00 | 86 | 1008.8 |
| 20260506210948 | 85 | 314 | 1.0 | 3.0 | 0.00 | 0.00 | 0.00 | 87 | 1008.8 |
| 20260506210445 | 85 | 319 | 1.0 | 3.0 | 0.00 | 0.00 | 0.00 | 87 | 1008.8 |
| 20260506205942 | 85 | 126 | 1.0 | 2.0 | 0.00 | 0.00 | 0.00 | 87 | 1008.8 |
| 20260506205439 | 84 | 109 | 1.0 | 2.0 | 0.00 | 0.00 | 0.00 | 88 | 1008.8 |
| 20260506204936 | 84 | 330 | 1.0 | 2.0 | 0.00 | 0.00 | 0.00 | 88 | 1008.8 |
| 20260506204402 | 84 | 58 | 1.0 | 2.0 | 0.00 | 0.00 | 0.00 | 88 | 1009.1 |
| 20260506203859 | 84 | 64 | 1.0 | 3.0 | 0.00 | 0.00 | 0.00 | 87 | 1009.1 |
| 20260506203356 | 84 | 85 | 1.0 | 3.0 | 0.00 | 0.00 | 0.00 | 88 | 1009.1 |
| 20260506202853 | 84 | 85 | 1.0 | 3.0 | 0.00 | 0.00 | 0.00 | 88 | 1009.1 |
| 20260506202318 | 84 | 56 | 2.0 | 3.0 | 0.00 | 0.00 | 0.00 | 88 | 1009.1 |
| 20260506201815 | 83 | 123 | 1.0 | 2.0 | 0.00 | 0.00 | 0.00 | 88 | 1009.5 |
| 20260506201312 | 83 | 290 | 1.0 | 2.0 | 0.00 | 0.00 | 0.00 | 89 | 1009.5 |
| 20260506200750 | 83 | 173 | 1.0 | 2.0 | 0.00 | 0.00 | 0.00 | 88 | 1009.5 |
| 20260506200247 | 83 | 302 | 1.0 | 2.0 | 0.00 | 0.00 | 0.00 | 89 | 1009.5 |
| 20260506195725 | 83 | 301 | 0.0 | 2.0 | 0.00 | 0.00 | 0.00 | 88 | 1009.5 |
| 20260506195048 | 83 | 302 | 1.0 | 2.0 | 0.00 | 0.00 | 0.00 | 89 | 1009.5 |
| 20260506194443 | 83 | 170 | 1.0 | 2.0 | 0.00 | 0.00 | 0.00 | 89 | 1009.8 |
| 20260506193940 | 83 | 311 | 1.0 | 2.0 | 0.00 | 0.00 | 0.00 | 89 | 1009.8 |
| 20260506193437 | 83 | 311 | 1.0 | 2.0 | 0.00 | 0.00 | 0.00 | 89 | 1009.8 |
| 20260506192934 | 83 | 312 | 0.0 | 1.0 | 0.00 | 0.00 | 0.00 | 89 | 1009.8 |
| 20260506192431 | 82 | 312 | 0.0 | 1.0 | 0.00 | 0.00 | 0.00 | 90 | 1009.8 |
| 20260506191928 | 82 | 312 | 1.0 | 1.0 | 0.00 | 0.00 | 0.00 | 90 | 1010.2 |
| 20260506191323 | 82 | 300 | 0.0 | 1.0 | 0.00 | 0.00 | 0.00 | 90 | 1010.2 |
| 20260506190820 | 82 | 300 | 1.0 | 1.0 | 0.00 | 0.00 | 0.00 | 90 | 1010.2 |
| 20260506190317 | 82 | 300 | 0.0 | 1.0 | 0.00 | 0.00 | 0.00 | 90 | 1010.2 |
| 20260506185742 | 82 | 300 | 0.0 | 1.0 | 0.00 | 0.00 | 0.00 | 91 | 1010.2 |
| 20260506185239 | 82 | 300 | 0.0 | 0.0 | 0.00 | 0.00 | 0.00 | 90 | 1010.2 |
| 20260506184736 | 82 | 300 | 0.0 | 0.0 | 0.00 | 0.00 | 0.00 | 90 | 1010.2 |
| 20260506184233 | 82 | 300 | 0.0 | 1.0 | 0.00 | 0.00 | 0.00 | 90 | 1010.2 |
| 20260506183659 | 82 | 300 | 0.0 | 1.0 | 0.00 | 0.00 | 0.00 | 90 | 1010.2 |
| 20260506183155 | 82 | 300 | 0.0 | 1.0 | 0.00 | 0.00 | 0.00 | 90 | 1010.5 |
| 20260506182652 | 82 | 300 | 1.0 | 1.0 | 0.00 | 0.00 | 0.00 | 90 | 1010.5 |
| 20260506182149 | 82 | 299 | 1.0 | 2.0 | 0.00 | 0.00 | 0.00 | 89 | 1010.5 |
| 20260506181645 | 82 | 299 | 0.0 | 2.0 | 0.00 | 0.00 | 0.00 | 90 | 1010.5 |
| 20260506181142 | 82 | 319 | 1.0 | 2.0 | 0.00 | 0.00 | 0.00 | 89 | 1010.8 |
| 20260506180620 | 82 | 30 | 0.0 | 1.0 | 0.00 | 0.00 | 0.00 | 89 | 1010.8 |
| 20260506180117 | 82 | 30 | 1.0 | 2.0 | 0.00 | 0.00 | 0.00 | 89 | 1010.8 |
| 20260506175607 | 82 | 28 | 0.0 | 2.0 | 0.00 | 0.00 | 0.00 | 89 | 1010.5 |
| 20260506175103 | 82 | 28 | 0.0 | 2.0 | 0.00 | 0.00 | 0.00 | 89 | 1010.8 |
| 20260506174600 | 82 | 11 | 1.0 | 1.0 | 0.00 | 0.00 | 0.00 | 90 | 1010.5 |
| 20260506174026 | 82 | 11 | 0.0 | 1.0 | 0.00 | 0.00 | 0.00 | 90 | 1010.8 |
| 20260506173522 | 81 | 140 | 1.0 | 2.0 | 0.00 | 0.00 | 0.00 | 91 | 1010.8 |
| 20260506173019 | 81 | 182 | 0.0 | 2.0 | 0.00 | 0.00 | 0.00 | 90 | 1010.8 |
| 20260506172515 | 81 | 182 | 0.0 | 2.0 | 0.00 | 0.00 | 0.00 | 91 | 1011.2 |
| 20260506172004 | 81 | 20 | 0.0 | 0.0 | 0.00 | 0.00 | 0.00 | 91 | 1010.8 |
| 20260506171501 | 81 | 38 | 0.0 | 0.0 | 0.00 | 0.00 | 0.00 | 91 | 1011.2 |
| 20260506170939 | 81 | 48 | 0.0 | 0.0 | 0.00 | 0.00 | 0.00 | 91 | 1011.2 |
| 20260506170436 | 81 | 48 | 0.0 | 0.0 | 0.00 | 0.00 | 0.00 | 91 | 1011.2 |
| 20260506165932 | 81 | 48 | 0.0 | 0.0 | 0.00 | 0.00 | 0.00 | 92 | 1011.2 |
| 20260506165429 | 81 | 48 | 0.0 | 0.0 | 0.00 | 0.00 | 0.00 | 92 | 1011.2 |
| 20260506164925 | 80 | 48 | 0.0 | 0.0 | 0.00 | 0.00 | 0.00 | 92 | 1011.2 |
| 20260506164422 | 80 | 48 | 0.0 | 0.0 | 0.00 | 0.00 | 0.00 | 93 | 1011.2 |
| 20260506163915 | 80 | 48 | 0.0 | 0.0 | 0.00 | 0.00 | 0.00 | 93 | 1011.2 |
| 20260506163412 | 79 | 355 | 0.0 | 0.0 | 0.00 | 0.00 | 0.00 | 93 | 1011.2 |
| 20260506162909 | 79 | 355 | 0.0 | 0.0 | 0.00 | 0.00 | 0.00 | 93 | 1011.2 |
| 20260506162404 | 79 | 355 | 0.0 | 0.0 | 0.00 | 0.00 | 0.00 | 94 | 1011.2 |
| 20260506161811 | 79 | 355 | 0.0 | 0.0 | 0.00 | 0.00 | 0.00 | 94 | 1010.8 |
| 20260506161247 | 79 | 355 | 0.0 | 0.0 | 0.00 | 0.00 | 0.00 | 94 | 1010.8 |
| 20260506160742 | 79 | 355 | 0.0 | 0.0 | 0.00 | 0.00 | 0.00 | 93 | 1011.2 |
| 20260506160239 | 79 | 355 | 0.0 | 0.0 | 0.00 | 0.00 | 0.00 | 93 | 1011.2 |
| 20260506155655 | 79 | 355 | 0.0 | 0.0 | 0.00 | 0.00 | 0.00 | 93 | 1010.8 |
| 20260506155132 | 79 | 355 | 0.0 | 0.0 | 0.00 | 0.00 | 0.00 | 94 | 1010.8 |
| 20260506154629 | 78 | 355 | 0.0 | 0.0 | 0.00 | 0.00 | 0.00 | 94 | 1010.5 |
| 20260506154126 | 78 | 360 | 0.0 | 0.0 | 0.00 | 0.00 | 0.00 | 94 | 1010.5 |
| 20260506153623 | 78 | 333 | 0.0 | 0.0 | 0.00 | 0.00 | 0.00 | 93 | 1010.5 |
| 20260506153120 | 78 | 333 | 0.0 | 0.0 | 0.00 | 0.00 | 0.00 | 93 | 1010.5 |
| 20260506152616 | 78 | 333 | 0.0 | 0.0 | 0.00 | 0.00 | 0.00 | 93 | 1010.5 |
| 20260506152042 | 78 | 329 | 0.0 | 0.0 | 0.00 | 0.00 | 0.00 | 94 | 1010.5 |
| 20260506151538 | 78 | 329 | 0.0 | 0.0 | 0.00 | 0.00 | 0.00 | 94 | 1010.5 |
| 20260506151035 | 78 | 329 | 0.0 | 0.0 | 0.00 | 0.00 | 0.00 | 94 | 1010.5 |
| 20260506150532 | 78 | 329 | 0.0 | 0.0 | 0.00 | 0.00 | 0.00 | 94 | 1010.2 |
| 20260506150028 | 78 | 329 | 0.0 | 0.0 | 0.00 | 0.00 | 0.00 | 94 | 1010.2 |
| 20260506145526 | 78 | 328 | 0.0 | 0.0 | 0.00 | 0.00 | 0.00 | 94 | 1010.2 |
| 20260506145023 | 78 | 328 | 0.0 | 0.0 | 0.00 | 0.00 | 0.00 | 94 | 1010.2 |
| 20260506144519 | 78 | 328 | 0.0 | 0.0 | 0.00 | 0.00 | 0.00 | 94 | 1009.8 |
| 20260506144011 | 78 | 328 | 0.0 | 0.0 | 0.00 | 0.00 | 0.00 | 94 | 1009.8 |
| 20260506143508 | 78 | 328 | 0.0 | 0.0 | 0.00 | 0.00 | 0.00 | 94 | 1009.8 |
| 20260506143004 | 78 | 329 | 0.0 | 0.0 | 0.00 | 0.00 | 0.00 | 94 | 1010.2 |
| 20260506142459 | 78 | 328 | 0.0 | 0.0 | 0.00 | 0.00 | 0.00 | 94 | 1010.2 |
| 20260506141952 | 78 | 329 | 0.0 | 0.0 | 0.00 | 0.00 | 0.00 | 94 | 1010.2 |
| 20260506141447 | 78 | 329 | 0.0 | 0.0 | 0.00 | 0.00 | 0.00 | 94 | 1010.2 |
| 20260506140943 | 78 | 329 | 0.0 | 0.0 | 0.00 | 0.00 | 0.00 | 94 | 1010.2 |
| 20260506140438 | 78 | 328 | 0.0 | 0.0 | 0.00 | 0.00 | 0.00 | 95 | 1010.2 |
| 20260506135901 | 78 | 328 | 0.0 | 0.0 | 0.00 | 0.00 | 0.00 | 95 | 1010.2 |
| 20260506135357 | 78 | 328 | 0.0 | 0.0 | 0.00 | 0.00 | 0.00 | 95 | 1010.2 |
| 20260506134820 | 77 | 328 | 0.0 | 0.0 | 0.00 | 0.00 | 0.00 | 95 | 1010.2 |
| 20260506134245 | 77 | 328 | 0.0 | 0.0 | 0.00 | 0.00 | 0.00 | 95 | 1010.2 |
| 20260506133741 | 77 | 328 | 0.0 | 0.0 | 0.00 | 0.00 | 0.00 | 95 | 1010.2 |
| 20260506133205 | 77 | 328 | 0.0 | 0.0 | 0.00 | 0.00 | 0.00 | 95 | 1010.2 |
| 20260506132700 | 77 | 328 | 0.0 | 0.0 | 0.00 | 0.00 | 0.00 | 95 | 1010.2 |
| 20260506132126 | 77 | 328 | 0.0 | 0.0 | 0.00 | 0.00 | 0.00 | 95 | 1010.2 |
| 20260506131621 | 77 | 329 | 0.0 | 0.0 | 0.00 | 0.00 | 0.00 | 95 | 1010.5 |
| 20260506131059 | 77 | 328 | 0.0 | 0.0 | 0.00 | 0.00 | 0.00 | 95 | 1010.2 |
| 20260506130533 | 77 | 328 | 0.0 | 0.0 | 0.00 | 0.00 | 0.00 | 95 | 1010.2 |
| 20260506130029 | 76 | 328 | 0.0 | 0.0 | 0.00 | 0.00 | 0.00 | 95 | 1010.2 |
| 20260506125453 | 76 | 328 | 0.0 | 0.0 | 0.00 | 0.00 | 0.00 | 95 | 1010.2 |
| 20260506124949 | 76 | 328 | 0.0 | 0.0 | 0.00 | 0.00 | 0.00 | 95 | 1010.2 |
| 20260506124445 | 76 | 329 | 0.0 | 0.0 | 0.00 | 0.00 | 0.00 | 95 | 1010.2 |
| 20260506123941 | 76 | 328 | 0.0 | 0.0 | 0.00 | 0.00 | 0.00 | 95 | 1010.2 |
| 20260506123436 | 76 | 328 | 0.0 | 0.0 | 0.00 | 0.00 | 0.00 | 95 | 1010.2 |
| 20260506122931 | 76 | 328 | 0.0 | 0.0 | 0.00 | 0.00 | 0.00 | 95 | 1010.2 |
| 20260506121848 | 76 | 329 | 0.0 | 0.0 | 0.00 | 0.00 | 0.00 | 95 | 1009.8 |
| 20260506121314 | 76 | 328 | 0.0 | 0.0 | 0.00 | 0.00 | 0.00 | 95 | 1009.8 |
| 20260506120752 | 76 | 328 | 0.0 | 0.0 | 0.00 | 0.00 | 0.00 | 95 | 1009.8 |
| 20260506120249 | 76 | 327 | 0.0 | 0.0 | 0.00 | 0.00 | 0.00 | 95 | 1009.8 |
| 20260506115746 | 76 | 333 | 0.0 | 0.0 | 0.00 | 0.00 | 0.00 | 95 | 1009.8 |
| 20260506115243 | 76 | 333 | 0.0 | 0.0 | 0.00 | 0.00 | 0.00 | 95 | 1009.5 |
| 20260506114739 | 76 | 333 | 0.0 | 0.0 | 0.00 | 0.00 | 0.00 | 95 | 1009.5 |
| 20260506114236 | 76 | 333 | 0.0 | 0.0 | 0.00 | 0.00 | 0.00 | 95 | 1009.5 |
| 20260506113733 | 76 | 333 | 0.0 | 0.0 | 0.00 | 0.00 | 0.00 | 95 | 1009.5 |
| 20260506113230 | 76 | 333 | 0.0 | 0.0 | 0.00 | 0.00 | 0.00 | 95 | 1009.5 |
| 20260506112727 | 76 | 333 | 0.0 | 0.0 | 0.00 | 0.00 | 0.00 | 95 | 1009.1 |
| 20260506112223 | 76 | 333 | 0.0 | 0.0 | 0.00 | 0.00 | 0.00 | 95 | 1009.1 |
| 20260506111720 | 76 | 333 | 0.0 | 0.0 | 0.00 | 0.00 | 0.00 | 95 | 1009.1 |
| 20260506111202 | 76 | 333 | 0.0 | 0.0 | 0.00 | 0.00 | 0.00 | 95 | 1009.1 |
| 20260506110659 | 76 | 333 | 0.0 | 0.0 | 0.00 | 0.00 | 0.00 | 95 | 1009.1 |
| 20260506110137 | 76 | 333 | 0.0 | 0.0 | 0.00 | 0.00 | 0.00 | 94 | 1009.1 |
| 20260506105612 | 76 | 333 | 0.0 | 0.0 | 0.00 | 0.00 | 0.00 | 95 | 1009.1 |
| 20260506105109 | 76 | 333 | 0.0 | 0.0 | 0.00 | 0.00 | 0.00 | 95 | 1009.1 |
| 20260506104535 | 76 | 333 | 0.0 | 0.0 | 0.00 | 0.00 | 0.00 | 95 | 1009.1 |
| 20260506104031 | 76 | 333 | 0.0 | 0.0 | 0.00 | 0.00 | 0.00 | 95 | 1009.1 |
| 20260506103528 | 75 | 15 | 0.0 | 0.0 | 0.00 | 0.00 | 0.00 | 94 | 1009.1 |
| 20260506103025 | 75 | 15 | 0.0 | 0.0 | 0.00 | 0.00 | 0.00 | 94 | 1009.1 |
| 20260506102522 | 76 | 15 | 0.0 | 0.0 | 0.00 | 0.00 | 0.00 | 94 | 1009.1 |
| 20260506102019 | 76 | 15 | 0.0 | 0.0 | 0.00 | 0.00 | 0.00 | 94 | 1009.1 |
| 20260506101516 | 76 | 15 | 0.0 | 0.0 | 0.00 | 0.00 | 0.00 | 94 | 1008.8 |
| 20260506101013 | 76 | 15 | 0.0 | 0.0 | 0.00 | 0.00 | 0.00 | 94 | 1008.8 |
| 20260506100510 | 76 | 15 | 0.0 | 0.0 | 0.00 | 0.00 | 0.00 | 94 | 1008.8 |
| 20260506095905 | 76 | 340 | 0.0 | 0.0 | 0.00 | 0.00 | 0.00 | 94 | 1008.8 |
| 20260506095402 | 76 | 346 | 0.0 | 0.0 | 0.00 | 0.00 | 0.00 | 94 | 1008.8 |
| 20260506094859 | 75 | 5 | 0.0 | 0.0 | 0.00 | 0.00 | 0.00 | 94 | 1008.8 |
| 20260506094355 | 75 | 26 | 0.0 | 0.0 | 0.00 | 0.00 | 0.00 | 94 | 1008.8 |
| 20260506093852 | 76 | 26 | 0.0 | 0.0 | 0.00 | 0.00 | 0.00 | 94 | 1008.8 |
| 20260506093349 | 76 | 26 | 0.0 | 0.0 | 0.00 | 0.00 | 0.00 | 94 | 1008.8 |
| 20260506092814 | 76 | 26 | 0.0 | 0.0 | 0.00 | 0.00 | 0.00 | 94 | 1009.1 |
| 20260506092310 | 76 | 26 | 0.0 | 0.0 | 0.00 | 0.00 | 0.00 | 94 | 1008.8 |
| 20260506091807 | 76 | 26 | 0.0 | 0.0 | 0.00 | 0.00 | 0.00 | 94 | 1008.8 |
| 20260506091304 | 76 | 26 | 0.0 | 0.0 | 0.00 | 0.00 | 0.00 | 94 | 1009.1 |
| 20260506090800 | 76 | 26 | 0.0 | 0.0 | 0.00 | 0.00 | 0.00 | 94 | 1009.1 |
| 20260506090257 | 76 | 26 | 0.0 | 0.0 | 0.00 | 0.00 | 0.00 | 94 | 1008.8 |
| 20260506085754 | 76 | 26 | 0.0 | 0.0 | 0.00 | 0.00 | 0.00 | 94 | 1009.1 |
| 20260506085220 | 76 | 26 | 0.0 | 0.0 | 0.00 | 0.00 | 0.00 | 94 | 1009.1 |
| 20260506084645 | 76 | 26 | 0.0 | 0.0 | 0.00 | 0.00 | 0.00 | 94 | 1009.1 |
| 20260506084142 | 76 | 26 | 0.0 | 0.0 | 0.00 | 0.00 | 0.00 | 94 | 1009.1 |
| 20260506083638 | 76 | 53 | 0.0 | 0.0 | 0.00 | 0.00 | 0.00 | 94 | 1009.1 |
| 20260506083135 | 76 | 360 | 0.0 | 0.0 | 0.00 | 0.00 | 0.00 | 94 | 1009.1 |
| 20260506082632 | 76 | 360 | 0.0 | 0.0 | 0.00 | 0.00 | 0.00 | 94 | 1009.1 |
| 20260506082129 | 76 | 360 | 0.0 | 0.0 | 0.00 | 0.00 | 0.00 | 94 | 1009.1 |
| 20260506081625 | 76 | 360 | 0.0 | 0.0 | 0.00 | 0.00 | 0.00 | 93 | 1009.5 |
| 20260506081122 | 76 | 360 | 0.0 | 0.0 | 0.00 | 0.00 | 0.00 | 93 | 1009.5 |
| 20260506080601 | 76 | 360 | 0.0 | 0.0 | 0.00 | 0.00 | 0.00 | 94 | 1009.5 |
| 20260506073520 | 76 | 360 | 0.0 | 0.0 | 0.00 | 0.00 | 0.00 | 94 | 1009.8 |
| 20260506073016 | 76 | 360 | 0.0 | 0.0 | 0.00 | 0.00 | 0.00 | 94 | 1009.8 |
| 20260506072514 | 76 | 360 | 0.0 | 0.0 | 0.00 | 0.00 | 0.00 | 93 | 1009.8 |
| 20260506072011 | 76 | 360 | 0.0 | 0.0 | 0.00 | 0.00 | 0.00 | 93 | 1009.8 |
| 20260506071449 | 76 | 360 | 0.0 | 0.0 | 0.00 | 0.00 | 0.00 | 93 | 1010.2 |
| 20260506070926 | 76 | 360 | 0.0 | 0.0 | 0.00 | 0.00 | 0.00 | 93 | 1010.2 |
| 20260506070424 | 76 | 360 | 0.0 | 0.0 | 0.00 | 0.00 | 0.00 | 93 | 1010.2 |
| 20260506062237 | 76 | 360 | 0.0 | 0.0 | 0.00 | 0.00 | 0.00 | 93 | 1009.8 |
| 20260506061734 | 76 | 360 | 0.0 | 0.0 | 0.00 | 0.00 | 0.00 | 93 | 1009.8 |
| 20260506061230 | 76 | 348 | 0.0 | 0.0 | 0.00 | 0.00 | 0.00 | 93 | 1009.8 |
| 20260506060727 | 76 | 355 | 0.0 | 0.0 | 0.00 | 0.00 | 0.00 | 93 | 1009.8 |
| 20260506060152 | 76 | 355 | 0.0 | 0.0 | 0.00 | 0.00 | 0.00 | 93 | 1009.8 |
| 20260506051019 | 77 | 169 | 0.0 | 0.0 | 0.00 | 0.00 | 0.00 | 93 | 1010.2 |
| 20260506050516 | 77 | 169 | 0.0 | 0.0 | 0.00 | 0.00 | 0.00 | 93 | 1010.2 |
| 20260506044935 | 77 | 134 | 0.0 | 0.0 | 0.00 | 0.00 | 0.00 | 93 | 1009.8 |
| 20260506044432 | 77 | 134 | 0.0 | 0.0 | 0.00 | 0.00 | 0.00 | 93 | 1009.8 |
| 20260506043929 | 77 | 134 | 0.0 | 0.0 | 0.00 | 0.00 | 0.00 | 93 | 1009.8 |
| 20260506043426 | 77 | 336 | 0.0 | 0.0 | 0.00 | 0.00 | 0.00 | 93 | 1009.8 |
| 20260506042922 | 77 | 5 | 0.0 | 0.0 | 0.00 | 0.00 | 0.00 | 93 | 1009.8 |
| 20260506042419 | 77 | 5 | 0.0 | 2.0 | 0.00 | 0.00 | 0.00 | 93 | 1009.8 |
| 20260506041916 | 77 | 5 | 0.0 | 2.0 | 0.00 | 0.00 | 0.00 | 93 | 1010.2 |
| 20260506041342 | 77 | 5 | 0.0 | 2.0 | 0.00 | 0.00 | 0.00 | 92 | 1009.8 |
| 20260506040838 | 77 | 185 | 1.0 | 2.0 | 0.00 | 0.00 | 0.00 | 92 | 1009.8 |
| 20260506040335 | 77 | 186 | 1.0 | 1.0 | 0.00 | 0.00 | 0.00 | 92 | 1009.8 |
| 20260506035831 | 77 | 185 | 1.0 | 1.0 | 0.00 | 0.00 | 0.00 | 92 | 1009.8 |
| 20260506035328 | 77 | 132 | 0.0 | 2.0 | 0.00 | 0.00 | 0.00 | 92 | 1009.8 |
| 20260506034754 | 77 | 134 | 1.0 | 2.0 | 0.00 | 0.00 | 0.00 | 92 | 1009.8 |
| 20260506034251 | 77 | 134 | 1.0 | 2.0 | 0.00 | 0.00 | 0.00 | 92 | 1009.8 |
| 20260506033748 | 77 | 134 | 1.0 | 3.0 | 0.00 | 0.00 | 0.00 | 92 | 1009.8 |
| 20260506033245 | 77 | 134 | 1.0 | 3.0 | 0.00 | 0.00 | 0.00 | 92 | 1009.8 |
| 20260506032742 | 77 | 159 | 1.0 | 3.0 | 0.00 | 0.00 | 0.00 | 92 | 1009.8 |
| 20260506032239 | 77 | 159 | 1.0 | 3.0 | 0.00 | 0.00 | 0.00 | 92 | 1009.8 |
| 20260506031736 | 77 | 322 | 0.0 | 1.0 | 0.00 | 0.00 | 0.00 | 92 | 1009.8 |
| 20260506031233 | 77 | 17 | 0.0 | 1.0 | 0.00 | 0.00 | 0.00 | 92 | 1009.5 |
| 20260506030627 | 77 | 17 | 0.0 | 1.0 | 0.00 | 0.00 | 0.00 | 92 | 1009.5 |
| 20260506030124 | 77 | 17 | 0.0 | 1.0 | 0.00 | 0.00 | 0.00 | 92 | 1009.5 |
| 20260506025620 | 77 | 17 | 0.0 | 1.0 | 0.00 | 0.00 | 0.00 | 92 | 1009.5 |
| 20260506025008 | 77 | 201 | 1.0 | 1.0 | 0.00 | 0.00 | 0.00 | 92 | 1009.5 |
| 20260506024446 | 77 | 202 | 0.0 | 1.0 | 0.00 | 0.00 | 0.00 | 93 | 1009.5 |
| 20260506023912 | 77 | 202 | 0.0 | 0.0 | 0.00 | 0.00 | 0.00 | 93 | 1009.1 |
| 20260506023408 | 77 | 201 | 0.0 | 0.0 | 0.00 | 0.00 | 0.00 | 93 | 1009.1 |
| 20260506022846 | 77 | 239 | 0.0 | 0.0 | 0.00 | 0.00 | 0.00 | 93 | 1009.1 |
| 20260506022342 | 77 | 239 | 0.0 | 1.0 | 0.00 | 0.00 | 0.00 | 93 | 1009.1 |
| 20260506021823 | 77 | 239 | 0.0 | 1.0 | 0.00 | 0.00 | 0.00 | 92 | 1008.8 |
| 20260506021320 | 77 | 165 | 0.0 | 2.0 | 0.00 | 0.00 | 0.00 | 92 | 1008.8 |
| 20260506020815 | 77 | 165 | 1.0 | 2.0 | 0.00 | 0.00 | 0.00 | 92 | 1008.8 |
| 20260506020241 | 77 | 165 | 0.0 | 2.0 | 0.00 | 0.00 | 0.00 | 92 | 1008.8 |
| 20260506015738 | 77 | 177 | 1.0 | 2.0 | 0.00 | 0.00 | 0.00 | 92 | 1008.5 |
| 20260506015234 | 77 | 71 | 0.0 | 2.0 | 0.00 | 0.00 | 0.00 | 92 | 1008.5 |
| 20260506014730 | 77 | 71 | 0.0 | 2.0 | 0.00 | 0.00 | 0.00 | 91 | 1008.5 |
| 20260506014156 | 77 | 127 | 1.0 | 1.0 | 0.00 | 0.00 | 0.00 | 91 | 1008.5 |
| 20260506013621 | 77 | 153 | 0.0 | 1.0 | 0.00 | 0.00 | 0.00 | 91 | 1008.5 |
| 20260506013117 | 77 | 153 | 0.0 | 2.0 | 0.00 | 0.00 | 0.00 | 91 | 1008.5 |
| 20260506012614 | 77 | 153 | 0.0 | 2.0 | 0.00 | 0.00 | 0.00 | 91 | 1008.5 |
| 20260506012109 | 78 | 153 | 0.0 | 2.0 | 0.00 | 0.00 | 0.00 | 91 | 1008.1 |
| 20260506011534 | 78 | 153 | 1.0 | 4.0 | 0.00 | 0.00 | 0.00 | 91 | 1008.1 |
| 20260506011030 | 78 | 150 | 1.0 | 5.0 | 0.00 | 0.00 | 0.00 | 91 | 1008.1 |
| 20260506010321 | 78 | 148 | 1.0 | 5.0 | 0.00 | 0.00 | 0.00 | 91 | 1008.1 |
| 20260506005818 | 78 | 189 | 1.0 | 5.0 | 0.00 | 0.00 | 0.00 | 90 | 1008.1 |
| 20260506005315 | 78 | 151 | 2.0 | 4.0 | 0.00 | 0.00 | 0.00 | 90 | 1007.8 |
| 20260506004740 | 78 | 177 | 0.0 | 4.0 | 0.00 | 0.00 | 0.00 | 90 | 1007.8 |
| 20260506004236 | 78 | 186 | 1.0 | 4.0 | 0.00 | 0.00 | 0.00 | 90 | 1007.8 |
| 20260506003733 | 78 | 161 | 0.0 | 4.0 | 0.00 | 0.00 | 0.00 | 90 | 1007.8 |
| 20260506003230 | 78 | 152 | 2.0 | 4.0 | 0.00 | 0.00 | 0.00 | 90 | 1007.8 |
| 20260506002726 | 78 | 157 | 1.0 | 3.0 | 0.00 | 0.00 | 0.00 | 90 | 1007.8 |
| 20260506002223 | 78 | 97 | 1.0 | 2.0 | 0.00 | 0.00 | 0.00 | 90 | 1007.8 |
| 20260506001720 | 78 | 96 | 1.0 | 2.0 | 0.00 | 0.00 | 0.00 | 90 | 1007.8 |
| 20260506001145 | 79 | 111 | 1.0 | 2.0 | 0.00 | 0.00 | 0.00 | 90 | 1007.8 |
| 20260506000520 | 79 | 126 | 0.0 | 2.0 | 0.00 | 0.00 | 0.00 | 89 | 1007.8 |
| 20260506000017 | 79 | 292 | 0.0 | 2.0 | 0.00 | 0.00 | 0.00 | 89 | 1007.8 |
| 20260505235514 | 79 | 309 | 1.0 | 2.0 | 0.00 | 0.00 | 0.00 | 89 | 1007.8 |
| 20260505235011 | 79 | 309 | 1.0 | 2.0 | 0.00 | 0.00 | 0.00 | 89 | 1007.8 |
| 20260505234437 | 79 | 309 | 1.0 | 2.0 | 0.00 | 0.00 | 0.00 | 89 | 1007.8 |
| 20260505233933 | 79 | 310 | 1.0 | 2.0 | 0.00 | 0.00 | 0.00 | 89 | 1007.8 |
| 20260505233411 | 79 | 314 | 1.0 | 2.0 | 0.00 | 0.00 | 0.00 | 89 | 1007.8 |
| 20260505232908 | 79 | 193 | 1.0 | 3.0 | 0.00 | 0.00 | 0.00 | 88 | 1007.8 |
| 20260505232346 | 80 | 187 | 0.0 | 3.0 | 0.00 | 0.00 | 0.00 | 88 | 1007.8 |
| 20260505231842 | 80 | 187 | 1.0 | 3.0 | 0.00 | 0.00 | 0.00 | 88 | 1007.8 |
| 20260505231339 | 80 | 80 | 0.0 | 3.0 | 0.00 | 0.00 | 0.00 | 88 | 1007.8 |
| 20260505230836 | 80 | 114 | 1.0 | 3.0 | 0.00 | 0.00 | 0.00 | 87 | 1007.8 |
| 20260505230302 | 80 | 113 | 1.0 | 3.0 | 0.00 | 0.00 | 0.00 | 87 | 1007.8 |
| 20260505225759 | 80 | 132 | 1.0 | 3.0 | 0.00 | 0.00 | 0.00 | 87 | 1007.8 |
| 20260505225256 | 80 | 169 | 1.0 | 4.0 | 0.00 | 0.00 | 0.00 | 87 | 1007.8 |
| 20260505224651 | 80 | 156 | 1.0 | 4.0 | 0.00 | 0.00 | 0.00 | 88 | 1007.8 |
| 20260505224148 | 80 | 46 | 1.0 | 4.0 | 0.00 | 0.00 | 0.00 | 88 | 1007.8 |
| 20260505223645 | 80 | 84 | 1.0 | 4.0 | 0.00 | 0.00 | 0.00 | 88 | 1007.8 |
| 20260505223142 | 80 | 183 | 2.0 | 4.0 | 0.00 | 0.00 | 0.00 | 88 | 1007.8 |
| 20260505222639 | 80 | 237 | 1.0 | 3.0 | 0.00 | 0.00 | 0.00 | 88 | 1008.1 |
| 20260505222136 | 80 | 107 | 0.0 | 3.0 | 0.00 | 0.00 | 0.00 | 88 | 1007.8 |
| 20260505221614 | 80 | 107 | 1.0 | 3.0 | 0.00 | 0.00 | 0.00 | 88 | 1008.1 |
| 20260505221112 | 80 | 156 | 1.0 | 3.0 | 0.00 | 0.00 | 0.00 | 88 | 1007.8 |
| 20260505220608 | 80 | 167 | 1.0 | 3.0 | 0.00 | 0.00 | 0.00 | 88 | 1008.1 |
| 20260505220105 | 80 | 169 | 1.0 | 3.0 | 0.00 | 0.00 | 0.00 | 88 | 1008.1 |
| 20260505215531 | 80 | 178 | 1.0 | 3.0 | 0.00 | 0.00 | 0.00 | 88 | 1008.1 |
| 20260505215029 | 80 | 177 | 1.0 | 3.0 | 0.00 | 0.00 | 0.00 | 88 | 1008.1 |
| 20260505214525 | 80 | 133 | 1.0 | 3.0 | 0.00 | 0.00 | 0.00 | 88 | 1008.5 |
| 20260505214022 | 80 | 179 | 1.0 | 3.0 | 0.00 | 0.00 | 0.00 | 88 | 1008.5 |
| 20260505213500 | 81 | 166 | 1.0 | 3.0 | 0.00 | 0.00 | 0.00 | 88 | 1008.1 |
| 20260505212957 | 81 | 170 | 1.0 | 3.0 | 0.00 | 0.00 | 0.00 | 88 | 1008.5 |
| 20260505212454 | 81 | 213 | 1.0 | 3.0 | 0.00 | 0.00 | 0.00 | 87 | 1008.5 |
| 20260505211901 | 81 | 144 | 2.0 | 4.0 | 0.00 | 0.00 | 0.00 | 88 | 1008.5 |